Location: Pratorotondo
(44.4333°N, 6.9833°E)
Time: 22:08:23
(UTC+00:00)

Daily predictions for brighter satellites

Satellite Brightness Start Highest point End
(mag) Time Altitude Azimuth Time Altitude Azimuth Time Altitude Azimuth
CZ-4C R/B 4.0 17:31:40 10° N 17:35:52 66° WNW 17:39:52 10° SSW
USA 267 3.4 17:29:26 10° ESE 17:35:55 67° NNE 17:42:26 10° NW
Cosmos 1626 3.1 17:33:52 10° NNW 17:37:24 51° W 17:40:55 10° S
SL-4 R/B 2.6 17:33:10 10° NW 17:37:29 54° NNE 17:42:03 10° ESE
Cosmos 1805 3.2 17:36:46 10° S 17:40:36 71° E 17:44:30 10° NNE
Cosmos 1242 Rocket 2.7 17:38:20 10° SSW 17:41:53 78° W 17:45:26 10° N
Cosmos 1697 Rocket 4.1 17:41:45 10° SW 17:47:01 41° WNW 17:52:20 10° NNE
CZ-4 R/B 2.5 17:43:47 10° SE 17:47:16 26° ENE 17:50:45 10° N
ISS -3.4 17:44:10 10° WNW 17:47:31 68° SW 17:50:52 10° SE
Cosmos 2082 4.2 17:42:14 10° NNW 17:47:56 68° WSW 17:53:37 10° SSE
BREEZE M DEB (TANK) 4.1 17:41:43 10° SSW 17:49:58 33° SSE 17:53:02 12° E
Okean 2 4.2 17:46:31 10° NNW 17:50:36 57° W 17:54:39 10° S
Cosmos 1908 Rocket 4.2 17:48:27 10° SSE 17:52:19 33° E 17:56:13 10° NNE
Meteor 2-21 4.5 17:46:54 10° S 17:52:47 58° E 17:58:42 10° NNE
MOS 1-B 4.4 17:47:30 10° SSE 17:53:12 63° ENE 17:58:58 10° N
Cosmos 1733 3.5 17:50:24 10° SSW 17:54:07 70° W 17:57:52 10° N
Cosmos 2360 Rocket 3.6 17:51:18 10° SE 17:54:24 15° E 17:57:31 10° ENE
SL-14 R/B 3.2 17:50:46 10° N 17:54:45 78° E 17:58:45 10° SSE
Cosmos 1809 Rocket 4.4 17:51:20 10° S 17:57:23 78° E 18:03:30 10° N
Cosmos 1766 3.3 17:56:38 10° S 18:00:28 56° E 18:04:21 10° NNE
Meteor 2-10 4.2 17:56:19 10° S 18:01:58 89° E 18:07:28 10° N
Cosmos 1674 Rocket 3.5 17:59:34 10° N 18:04:01 80° E 18:08:27 10° S
YAOGAN 1 2.6 18:01:11 10° SSE 18:05:24 57° ENE 18:09:40 10° N
Cosmos 1025 Rocket 4.4 18:03:22 10° NNE 18:06:31 19° ENE 18:07:57 17° E
Cosmos 968 Rocket 3.7 18:02:04 10° S 18:07:04 47° ESE 18:12:04 10° NNE
Okean O Rocket 1.7 18:05:03 10° SSE 18:09:16 52° ENE 18:13:32 10° N
IRIDIUM 106 4.3 18:05:50 10° S 18:10:59 67° E 18:16:11 10° N
Lacrosse 4 Rocket 2.4 18:08:38 10° SSE 18:11:55 24° ESE 18:13:56 17° ENE
Nadezhda 4 Rocket 4.0 18:08:01 10° S 18:14:18 72° E 18:20:35 10° NNE
Meteor 1-15 Rocket 4.2 18:10:38 10° S 18:16:04 57° E 18:21:31 10° NNE
Meteor 2-5 Rocket 4.0 18:11:04 10° N 18:16:22 44° ENE 18:21:38 10° SE
USA 186 3.2 18:22:41 22° ENE 18:22:41 22° ENE 18:25:06 10° NNE
Cosmos 1726 2.8 18:19:05 10° SSW 18:22:39 55° W 18:26:16 10° N
Cosmos 2285 Rocket 4.0 18:16:30 10° NNW 18:22:53 77° ENE 18:29:17 10° SSE
Cosmos 2322 Rocket 2.6 18:17:38 10° S 18:22:55 40° ESE 18:28:12 10° NE
Cosmos 1470 2.9 18:23:38 10° SSE 18:27:18 45° E 18:30:59 10° NNE
CZ-4B R/B 3.3 18:22:21 10° S 18:27:43 79° WSW 18:33:15 10° NNW
Cosmos 1980 Rocket 3.7 18:23:56 10° WSW 18:29:08 38° NW 18:34:22 10° NNE
Cosmos 1378 Rocket 4.4 18:26:15 10° NNW 18:30:31 53° W 18:34:44 10° S
Cosmos 1975 Rocket 3.6 18:27:40 10° N 18:31:45 36° ENE 18:33:09 28° ESE
ARGOS Delta rocket 4.4 18:26:57 10° N 18:32:10 67° WNW 18:37:03 10° SSW
Cosmos 2292 Rocket 3.6 18:32:09 10° S 18:37:29 79° E 18:41:30 10° N
USA 215 4.1 18:37:57 10° NE 18:44:06 46° NNW 18:50:16 10° W
IRS-1C Rocket 4.5 18:43:42 31° ESE 18:45:28 41° ENE 18:50:23 10° N
Cosmos 1844 Rocket 2.9 18:45:34 10° NNW 18:51:06 50° ENE 18:52:59 36° ESE
SL-16 R/B 2.2 18:47:26 10° SSW 18:53:06 85° WNW 18:58:49 10° NNE
Cosmos 1092 Rocket 3.9 18:49:28 10° S 18:55:48 83° E 19:02:05 10° N
Cosmos 1570 Rocket 4.2 18:51:07 10° NNW 18:56:21 70° WSW 19:00:57 13° S
Landsat 5 3.5 18:52:13 10° NNE 18:56:42 63° ESE 19:01:04 10° S
Resurs 01 Rocket 3.4 19:01:19 18° NE 19:01:19 18° NE 19:03:04 10° NNE
SJ-6B 2.7 19:02:07 64° NE 19:02:07 64° NE 19:05:36 10° N
H-2A R/B 4.4 19:07:12 17° NNE 19:07:12 17° NNE 19:08:20 10° N
Cosmos 1437 Rocket 4.0 19:01:33 10° SW 19:05:05 39° WNW 19:08:38 10° N
Cosmos 2278 Rocket 4.2 19:03:17 10° NNE 19:05:41 13° NE 19:05:41 13° NE
Cosmos 2263 Rocket 4.2 19:05:14 10° NW 19:09:53 26° WSW 19:14:31 10° SSW
Resurs 1-3 3.8 19:11:26 54° NE 19:11:26 54° NE 19:15:15 10° N
Meteor 1-24 Rocket 3.7 19:06:24 10° NNW 19:11:42 73° W 19:16:12 15° S
SL-4 R/B 3.2 19:12:42 10° WNW 19:16:58 41° SW 19:17:51 37° SSW
USA 267 4.2 19:14:27 17° SSE 19:19:08 41° SW 19:25:17 10° WNW
Cosmos 2084 Rocket 3.5 19:16:22 10° NW 19:19:51 66° W 19:19:51 66° W
Okean-O 2.5 19:20:29 85° S 19:20:37 90° WSW 19:25:04 10° NNW
CZ-4 R/B 3.4 19:18:26 10° SSW 19:22:05 29° W 19:25:46 10° NW
Cosmos 1486 Rocket 3.9 19:17:08 10° SSW 19:22:27 84° ESE 19:27:49 10° NNE
OBJECT-B 3.6 19:24:56 11° NNW 19:24:56 11° NNW 19:25:04 10° NNW
IGS 5A 3.6 19:24:37 72° W 19:24:37 72° W 19:28:41 10° NNW
Cosmos 1844 3.5 19:20:04 10° NNW 19:25:39 78° ENE 19:26:13 70° ESE
DNEPR-1 R/B 4.0 19:22:15 10° SW 19:26:53 74° NW 19:30:36 21° NNE
Cosmos 2333 Rocket 4.3 19:23:46 10° S 19:36:34 - NNE 19:24:21 13° S
Cosmos 1300 Rocket 3.8 19:30:15 64° NW 19:30:15 64° NW 19:34:08 10° N
CSL-04 Debris 4.5 19:28:02 29° S 19:30:45 64° WSW 19:36:08 10° NNW
S3M 4.3 19:24:54 10° N 19:30:10 46° NE 19:30:10 46° NE
Cosmos 2360 Rocket 2.2 19:31:59 10° SSW 19:37:38 81° WNW 19:43:19 10° NNE
Cosmos 1025 Rocket 4.2 19:40:14 10° NNW 19:44:16 39° W 19:44:51 37° WSW
Okean O Rocket 4.4 19:43:14 10° SW 19:45:55 16° W 19:48:36 10° NW
Lacrosse 4 Rocket 2.9 19:46:35 10° WSW 19:50:17 34° NW 19:50:17 34° NW
Cosmos 1417 Rocket 4.3 19:45:14 10° N 19:51:03 79° NNE 19:51:03 79° NNE
ATLAS 2AS CENTAUR R/B 4.3 19:55:14 10° NNW 20:00:37 22° NNE 20:01:35 21° NNE
Cosmos 1553 Rocket 4.5 19:58:53 10° NNW 20:05:08 59° W 20:06:34 48° SW
Cosmos 2322 Rocket 3.7 20:01:50 10° WSW 20:07:00 34° NW 20:12:12 10° N
NOSS 3-4 (A) 4.1 20:05:58 10° NNW 20:12:04 55° NNE 20:12:04 55° NNE
NOSS 3-4 (C) 4.1 20:06:05 10° NNW 20:12:10 55° NNE 20:12:10 55° NNE
NOSS 3-3 (A) 4.5 20:15:24 10° SW 20:20:03 51° WNW 20:20:03 51° WNW
USA 281 4.4 20:27:40 32° NNE 20:27:40 32° NNE 20:31:39 10° NNW
Cosmos 1844 Rocket 4.4 20:30:03 10° NW 20:34:39 26° WSW 20:34:40 26° WSW
Resurs 01 Rocket 4.3 20:38:53 17° NW 20:38:53 17° NW 20:40:02 10° NNW
Cosmos 2278 Rocket 4.1 20:45:25 10° NNW 20:47:32 23° NNW 20:47:32 23° NNW
